UAL6 ZMCK-RJAA

Flight info

Callsign UAL6
Flight time N/A
Altitude 35100
Route MENUG2C MENUG Y345 POLHO W33 UKDUM DCT ANOBI DCT LC W201 UNSEK A326 ALARA/K0848S1130 A326 DONVO G597 AGAVO/N0455F370 Y644 EGOBA Y697 LANAT Y51 SAMON Y517 ESKAS Y303 ENTAK/N0459F380 Y30 SWAMP
Aircraft B38M/M-SDE1FGHILORVWXY/HB1

Departure

Time N/A
Airport Ulaanbaatar Chinggis Khaan International Airport (ZMCK)

Arrival

Time 2026-05-07 11:50
Airport Narita International Airport (RJAA)
Time Latitude Longitude Altitude Speed Heading
2026-05-07 10:39 37.43679 127.30763 36915 ft 549 kts 44°
2026-05-07 10:40 37.48105 127.38009 36900 ft 553 kts 63°
2026-05-07 10:40 37.49427 127.42459 36907 ft 550 kts 79°
2026-05-07 10:40 37.50188 127.47194 36948 ft 553 kts 81°
2026-05-07 10:41 37.51749 127.56678 36902 ft 553 kts 81°
2026-05-07 10:41 37.54151 127.71692 36844 ft 553 kts 81°
2026-05-07 10:42 37.56703 127.87912 36889 ft 552 kts 81°
2026-05-07 10:42 37.58294 127.98090 36847 ft 552 kts 82°
2026-05-07 10:43 37.59850 128.08073 36852 ft 551 kts 81°
2026-05-07 10:43 37.61711 128.20102 36859 ft 550 kts 82°
2026-05-07 10:44 37.63773 128.33473 36863 ft 549 kts 82°
2026-05-07 10:44 37.65249 128.43209 36848 ft 549 kts 82°
2026-05-07 10:45 37.67607 128.58781 36854 ft 549 kts 82°
2026-05-07 10:45 37.68974 128.68247 36815 ft 546 kts 88°
2026-05-07 10:46 37.69046 128.72994 36842 ft 535 kts 102°
2026-05-07 10:46 37.68376 128.77548 36806 ft 521 kts 117°
2026-05-07 10:46 37.66906 128.81614 36834 ft 502 kts 130°
2026-05-07 10:46 37.65189 128.85389 36812 ft 505 kts 130°
2026-05-07 10:47 37.60347 128.95695 36814 ft 506 kts 130°
2026-05-07 10:47 37.54899 129.07058 36822 ft 504 kts 131°
2026-05-07 10:48 37.47618 129.22119 36823 ft 504 kts 131°
2026-05-07 10:48 37.40347 129.37142 36783 ft 504 kts 131°
2026-05-07 10:49 37.35409 129.47284 36803 ft 501 kts 131°
2026-05-07 10:49 37.28096 129.62236 36780 ft 501 kts 131°
2026-05-07 10:50 37.20833 129.77072 36799 ft 500 kts 131°
2026-05-07 10:50 37.13535 129.91922 36792 ft 499 kts 131°
2026-05-07 10:51 37.06288 130.06541 36781 ft 498 kts 131°
2026-05-07 10:51 36.98963 130.21281 36799 ft 498 kts 131°
2026-05-07 10:52 36.91652 130.35919 36801 ft 497 kts 130°
2026-05-07 10:52 36.84331 130.50520 36795 ft 495 kts 130°
2026-05-07 10:53 36.77056 130.64960 36818 ft 495 kts 130°
2026-05-07 10:53 36.69739 130.79458 36826 ft 495 kts 130°
2026-05-07 10:54 36.62391 130.93942 36811 ft 494 kts 130°
2026-05-07 10:54 36.55023 131.08352 36833 ft 494 kts 130°
2026-05-07 10:55 36.47700 131.22677 36829 ft 494 kts 129°
2026-05-07 10:55 36.43307 131.31221 36850 ft 494 kts 130°
2026-05-07 10:56 36.39614 131.38403 36841 ft 493 kts 128°
2026-05-07 10:56 36.38062 131.42229 36837 ft 503 kts 114°
2026-05-07 10:56 36.37301 131.46494 36854 ft 512 kts 98°
2026-05-07 10:57 36.36955 131.55648 36844 ft 516 kts 96°
2026-05-07 10:57 36.36541 131.68434 36850 ft 514 kts 95°
2026-05-07 10:58 36.35968 131.86158 36869 ft 514 kts 95°
2026-05-07 10:58 36.35376 132.03802 36862 ft 512 kts 96°
2026-05-07 10:59 36.34746 132.21266 36880 ft 510 kts 96°
2026-05-07 10:59 36.34107 132.38852 36879 ft 511 kts 96°
2026-05-07 11:00 36.33445 132.56378 36884 ft 509 kts 96°
2026-05-07 11:00 36.32739 132.73865 36885 ft 505 kts 96°
2026-05-07 11:01 36.32028 132.91092 36898 ft 505 kts 96°
2026-05-07 11:01 36.31299 133.08472 36906 ft 505 kts 96°
2026-05-07 11:02 36.30528 133.25820 36913 ft 505 kts 96°
2026-05-07 11:02 36.29729 133.43135 36908 ft 503 kts 96°
2026-05-07 11:03 36.28933 133.60465 36916 ft 503 kts 96°
2026-05-07 11:03 36.28107 133.77590 36908 ft 501 kts 97°
2026-05-07 11:04 36.27227 133.94826 36916 ft 501 kts 97°
2026-05-07 11:04 36.26342 134.12041 36916 ft 502 kts 97°
2026-05-07 11:05 36.25449 134.29181 36926 ft 502 kts 97°
2026-05-07 11:05 36.24964 134.38046 36912 ft 502 kts 97°
2026-05-07 11:06 36.24493 134.46668 36927 ft 502 kts 97°
2026-05-07 11:06 36.24509 134.51002 36900 ft 506 kts 84°
2026-05-07 11:06 36.25196 134.55275 36944 ft 507 kts 81°
2026-05-07 11:07 36.26574 134.63811 36921 ft 509 kts 80°
2026-05-07 11:07 36.28870 134.77578 36928 ft 509 kts 80°
2026-05-07 11:08 36.31741 134.94788 36924 ft 510 kts 80°
2026-05-07 11:08 36.34567 135.11979 36922 ft 510 kts 81°
2026-05-07 11:09 36.37367 135.29193 36925 ft 510 kts 81°
2026-05-07 11:09 36.40148 135.46341 36902 ft 510 kts 81°
2026-05-07 11:10 36.42896 135.63507 36921 ft 507 kts 81°
2026-05-07 11:10 36.45612 135.80716 36929 ft 507 kts 81°
2026-05-07 11:11 36.48295 135.97762 36922 ft 507 kts 81°
2026-05-07 11:11 36.50976 136.14969 36914 ft 507 kts 81°
2026-05-07 11:12 36.53601 136.32139 36911 ft 506 kts 81°
2026-05-07 11:12 36.56226 136.49305 36914 ft 506 kts 81°
2026-05-07 11:13 36.58826 136.66518 36928 ft 506 kts 82°
2026-05-07 11:13 36.61370 136.83587 36925 ft 505 kts 82°
2026-05-07 11:14 36.63880 137.00766 36933 ft 504 kts 82°
2026-05-07 11:14 36.66353 137.17910 36941 ft 504 kts 82°
2026-05-07 11:15 36.68771 137.34989 36930 ft 503 kts 83°
2026-05-07 11:15 36.71168 137.52143 36958 ft 504 kts 83°
2026-05-07 11:16 36.72617 137.62481 36947 ft 505 kts 82°
2026-05-07 11:16 36.73811 137.71102 36973 ft 505 kts 83°
2026-05-07 11:17 36.74995 137.79713 36965 ft 505 kts 83°
2026-05-07 11:17 36.76169 137.88277 36962 ft 504 kts 83°
2026-05-07 11:18 36.77922 138.01169 36969 ft 505 kts 83°
2026-05-07 11:18 36.79095 138.09795 36954 ft 505 kts 83°
2026-05-07 11:19 36.80661 138.21154 36968 ft 504 kts 83°
2026-05-07 11:19 36.82950 138.37949 36969 ft 505 kts 83°
2026-05-07 11:20 36.84411 138.48745 36975 ft 506 kts 83°
2026-05-07 11:20 36.85712 138.58611 36951 ft 508 kts 83°
2026-05-07 11:21 36.86857 138.67301 36979 ft 508 kts 83°
2026-05-07 11:21 36.87996 138.76004 36967 ft 508 kts 84°
2026-05-07 11:22 36.89407 138.86862 36983 ft 508 kts 83°
2026-05-07 11:22 36.90531 138.95554 36988 ft 508 kts 84°
2026-05-07 11:23 36.91993 139.06902 36966 ft 509 kts 83°
2026-05-07 11:23 36.94267 139.24348 36949 ft 508 kts 83°
2026-05-07 11:24 36.95578 139.34570 36961 ft 508 kts 83°
2026-05-07 11:24 36.96693 139.43282 36960 ft 507 kts 83°
2026-05-07 11:25 36.97805 139.52007 36954 ft 508 kts 83°
2026-05-07 11:25 36.98904 139.60699 36957 ft 507 kts 83°
2026-05-07 11:26 37.00074 139.69995 36957 ft 507 kts 84°
2026-05-07 11:26 37.01487 139.81437 36938 ft 506 kts 83°
2026-05-07 11:27 37.02582 139.90122 36933 ft 505 kts 84°
2026-05-07 11:27 37.03653 139.98793 36916 ft 504 kts 84°
2026-05-07 11:28 37.04711 140.07431 36904 ft 503 kts 84°
2026-05-07 11:28 37.05758 140.16032 36904 ft 503 kts 84°
2026-05-07 11:29 37.06804 140.24668 36907 ft 502 kts 84°
2026-05-07 11:29 37.07323 140.28976 36767 ft 499 kts 84°
2026-05-07 11:29 37.07838 140.33272 35898 ft 502 kts 84°
2026-05-07 11:30 37.08361 140.37636 34912 ft 509 kts 84°
2026-05-07 11:30 37.08885 140.42034 34154 ft 511 kts 84°
2026-05-07 11:30 37.09408 140.46435 33449 ft 511 kts 84°
2026-05-07 11:30 37.09919 140.50755 32664 ft 511 kts 85°
2026-05-07 11:31 37.10079 140.55177 31781 ft 507 kts 98°
2026-05-07 11:31 37.09417 140.59467 31021 ft 498 kts 113°
2026-05-07 11:31 37.08047 140.63393 30203 ft 490 kts 125°
2026-05-07 11:31 37.06130 140.66908 29003 ft 488 kts 135°
2026-05-07 11:32 37.00860 140.72089 26668 ft 479 kts 159°
2026-05-07 11:32 36.97786 140.73522 25992 ft 467 kts 169°
2026-05-07 11:32 36.94683 140.74402 25235 ft 460 kts 175°
2026-05-07 11:33 36.91482 140.74852 24360 ft 458 kts 180°
2026-05-07 11:33 36.88374 140.74615 23544 ft 452 kts 193°
2026-05-07 11:33 36.85319 140.73768 22694 ft 448 kts 197°
2026-05-07 11:33 36.82320 140.72790 21961 ft 444 kts 198°
2026-05-07 11:34 36.79364 140.71739 21237 ft 439 kts 199°
2026-05-07 11:34 36.76442 140.70662 20548 ft 436 kts 199°
2026-05-07 11:34 36.73555 140.69577 19860 ft 432 kts 200°
2026-05-07 11:34 36.70683 140.68485 19173 ft 430 kts 200°
2026-05-07 11:35 36.67849 140.67404 18544 ft 427 kts 200°
2026-05-07 11:35 36.65129 140.66131 17854 ft 421 kts 207°
2026-05-07 11:35 36.62489 140.64666 16844 ft 411 kts 206°
2026-05-07 11:35 36.59851 140.63241 15762 ft 412 kts 206°
2026-05-07 11:36 36.57248 140.61858 14801 ft 403 kts 206°
2026-05-07 11:36 36.54689 140.60510 13822 ft 395 kts 205°
2026-05-07 11:36 36.52186 140.59198 12761 ft 388 kts 205°
2026-05-07 11:36 36.49723 140.57903 11822 ft 381 kts 205°
2026-05-07 11:37 36.47306 140.56636 10930 ft 373 kts 205°
2026-05-07 11:37 36.44951 140.55402 10376 ft 372 kts 205°
2026-05-07 11:37 36.42603 140.54173 9992 ft 360 kts 204°
2026-05-07 11:37 36.40332 140.52985 9519 ft 350 kts 204°
2026-05-07 11:38 36.38124 140.51831 9019 ft 339 kts 204°
2026-05-07 11:38 36.35990 140.50717 8543 ft 329 kts 204°
2026-05-07 11:38 36.33914 140.49632 8111 ft 318 kts 204°
2026-05-07 11:38 36.31911 140.48588 7650 ft 308 kts 204°
2026-05-07 11:39 36.29970 140.47576 7222 ft 297 kts 204°
2026-05-07 11:39 36.28099 140.46600 6844 ft 287 kts 204°
2026-05-07 11:39 36.26288 140.45657 6505 ft 277 kts 204°
2026-05-07 11:39 36.24571 140.44763 6196 ft 266 kts 204°
2026-05-07 11:40 36.22884 140.43885 5965 ft 262 kts 204°
2026-05-07 11:40 36.21214 140.43016 5728 ft 258 kts 204°
2026-05-07 11:40 36.19576 140.42164 5509 ft 254 kts 204°
2026-05-07 11:40 36.17961 140.41325 5289 ft 249 kts 204°
2026-05-07 11:41 36.16372 140.40499 5077 ft 245 kts 204°
2026-05-07 11:41 36.14812 140.39689 4866 ft 241 kts 204°
2026-05-07 11:41 36.13280 140.38895 4659 ft 237 kts 204°
2026-05-07 11:41 36.11791 140.38122 4444 ft 233 kts 204°
2026-05-07 11:42 36.10311 140.37355 4229 ft 230 kts 204°
2026-05-07 11:42 36.08852 140.36598 4032 ft 225 kts 205°
2026-05-07 11:42 36.07434 140.35863 3900 ft 217 kts 205°
2026-05-07 11:42 36.06063 140.35154 3775 ft 210 kts 205°
2026-05-07 11:43 36.04719 140.34458 3661 ft 208 kts 205°
2026-05-07 11:43 36.03386 140.33768 3541 ft 208 kts 205°
2026-05-07 11:43 36.02069 140.33066 3429 ft 205 kts 210°
2026-05-07 11:43 36.01081 140.31883 3309 ft 202 kts 237°
2026-05-07 11:44 36.00324 140.30394 3211 ft 203 kts 236°
2026-05-07 11:44 35.99593 140.28942 3130 ft 199 kts 237°
2026-05-07 11:44 35.98890 140.27525 3046 ft 191 kts 237°
2026-05-07 11:44 35.98217 140.26156 2945 ft 183 kts 237°
2026-05-07 11:45 35.97535 140.24843 2908 ft 181 kts 227°
2026-05-07 11:45 35.96469 140.24070 2842 ft 182 kts 194°
2026-05-07 11:45 35.95192 140.24169 2796 ft 189 kts 169°
2026-05-07 11:45 35.93961 140.24794 2819 ft 190 kts 158°
2026-05-07 11:46 35.92835 140.25618 2789 ft 186 kts 155°
2026-05-07 11:46 35.91750 140.26429 2762 ft 184 kts 155°
2026-05-07 11:46 35.90649 140.27233 2764 ft 185 kts 155°
2026-05-07 11:46 35.89538 140.28042 2750 ft 187 kts 155°
2026-05-07 11:47 35.88424 140.28853 2529 ft 184 kts 156°
2026-05-07 11:47 35.87339 140.29642 2313 ft 178 kts 156°
2026-05-07 11:47 35.86289 140.30406 2099 ft 171 kts 156°
2026-05-07 11:47 35.85302 140.31123 1924 ft 162 kts 156°
2026-05-07 11:48 35.84358 140.31809 1720 ft 159 kts 156°
2026-05-07 11:48 35.83415 140.32495 1555 ft 154 kts 156°
2026-05-07 11:48 35.82509 140.33154 1322 ft 148 kts 156°
2026-05-07 11:48 35.81632 140.33785 1109 ft 144 kts 155°
2026-05-07 11:49 35.80768 140.34411 916 ft 144 kts 152°
2026-05-07 11:49 35.79919 140.35046 719 ft 144 kts 152°
2026-05-07 11:49 35.79050 140.35668 564 ft 144 kts 152°
2026-05-07 11:49 35.78207 140.36289 353 ft 142 kts 150°
2026-05-07 11:50 35.77351 140.36896 180 ft 143 kts 151°
2026-05-07 11:50 35.76618 140.37425 148 ft 96 kts 149°
2026-05-07 11:50 35.76227 140.37707 146 ft 52 kts 149°
2026-05-07 11:50 35.75949 140.37929 148 ft 40 kts 136°
2026-05-07 11:51 35.75827 140.38145 147 ft 29 kts 117°
2026-05-07 11:51 35.75779 140.38238 147 ft 9 kts 124°
2026-05-07 11:51 35.75746 140.38308 147 ft 9 kts 133°
2026-05-07 11:51 35.75714 140.38339 147 ft 8 kts 130°
2026-05-07 11:52 35.75723 140.38433 147 ft 9 kts 108°
2026-05-07 11:52 35.75670 140.38490 147 ft 11 kts 149°
2026-05-07 11:52 35.75611 140.38538 147 ft 9 kts 134°
2026-05-07 11:52 35.75596 140.38622 147 ft 11 kts 89°
2026-05-07 11:53 35.75609 140.38721 147 ft 10 kts 58°
2026-05-07 11:53 35.75650 140.38804 147 ft 13 kts 59°
2026-05-07 11:53 35.75676 140.38856 147 ft 10 kts 50°
2026-05-07 11:53 35.75764 140.38832 147 ft 11 kts 329°
2026-05-07 11:54 35.75810 140.38818 147 ft 11 kts
2026-05-07 11:54 35.75884 140.38856 147 ft 13 kts 25°
2026-05-07 11:54 35.75985 140.38912 147 ft 11 kts 25°
2026-05-07 11:54 35.76048 140.38918 146 ft 10 kts 318°
2026-05-07 11:55 35.76072 140.38862 146 ft 12 kts 294°
2026-05-07 11:55 35.76105 140.38772 146 ft 9 kts 294°
2026-05-07 11:55 35.76145 140.38700 146 ft 11 kts 328°
2026-05-07 11:55 35.76202 140.38659 146 ft 3 kts 329°
2026-05-07 11:56 35.76222 140.38641 146 ft 3 kts 297°
2026-05-07 11:56 35.76219 140.38625 146 ft 3 kts 251°
2026-05-07 11:56 35.76206 140.38594 146 ft 5 kts 237°
2026-05-07 11:56 35.76189 140.38558 146 ft 4 kts 239°
2026-05-07 11:57 35.76182 140.38544 146 ft 0 kts 239°